星链-2338 (STARLINK-2338 )

导读 | 星芒AI

STARLINK-2338 是 SpaceX Starlink 项目中的一颗低轨通信卫星,属于第 23 批部署的星链卫星群。该卫星于 2022 年发射,运行在约 550 公里的近地轨道,旨在为全球提供高速互联网服务。Starlink 卫星采用先进推进系统和激光通信技术,具备自动避障能力。STARLINK-2338 与其他星链卫星协同工作,提升网络覆盖与连接稳定性,支持偏远地区通信需求。

基本信息
目录编号:
47793
目录名称:
STARLINK-2338
国际标识:
2021-018G
轨道中心:
EARTH
卫星名称:
星链-2338
卫星全名:
星链-2338 (STARLINK-2338 )
卫星状态:
在轨 (已飞行1694 天)
发射日期:
2021-03-11 UTC
国别 :
美国 (US)
星等 :
--
轨道信息
数据来源 国际轨道数据 AOE轨道数据
星历时间 2025-10-30T03:33:30+0800
11小时前
查看轨道信息
2025-10-27T10:00:00+0800
3天前
查看轨道信息
半长轴 6925.321km 6925.358km
偏心率 0.0001391 0.0001508
轨道倾角 53.055° 53.054°
近地点辐角 95.420° 96.809°
升交点赤经 99.137° 111.399°
平近点角 264.695° 201.467°
近地点 546.222km 546.178km
远地点 548.15km 548.268km
周期 95.592分钟 95.592分钟
每日圈数 15.06409 15.063972
详细信息
固有亮度:
5
最大亮度:
2.5
卫星平台:
Starlink V1.0
覆盖范围:
全球
运营商:
太空探索技术公司
运营商所在国:
美国
制造商(研发单位):
太空探索技术公司
制造商所在国:
美国
使用方式:
暂无
卫星简介
星链(Starlink)计划是由太空探索技术公司(SpaceX)提出的一个巨型低轨卫星互联网星座项目,计划在2019年至2024年间在太空搭建由约1.2万颗卫星组成的“星链”网络,其中1584颗将部署在地球上空550千米处的近地轨道,并从2020年开始工作。该卫星仍在工作。
2D轨道图
3D轨道图
轨道高度分析图
轨道倾角分析图
轨道综合分析图
查看轨道综合分析图